Rochester, Indiana, United States (46975)
Lat: 41.06N, Lon: 86.22W
Wx Zone: INZ015
Local Info
Past Weather Observations for Today

NOTE: This archive is for the closest National Weather Service station to Rochester. Information may differ from the station used for current weather conditions.

Click here for Long-term Archive

Time Weather Temperature Dewpoint Humidity Pressure Winds Precip Visibility
22:15
Clear
68°F / 20°C 61°F / 16°C 78% 30.06 in
(1018 mb)
Calm - 10SM
21:55
Clear
68°F / 20°C 61°F / 16°C 78% 30.06 in
(1018 mb)
SSE 3.5 mph
(SSE 6 kph)
- 10SM
21:35
Partly Cloudy
68°F / 20°C 61°F / 16°C 78% 30.06 in
(1018 mb)
Calm - 10SM
21:15
Mostly Cloudy
68°F / 20°C 63°F / 17°C 83% 30.06 in
(1018 mb)
Calm - 10SM
20:55
Overcast
68°F / 20°C 61°F / 16°C 78% 30.06 in
(1018 mb)
Calm - 10SM
20:35
Mostly Cloudy
68°F / 20°C 61°F / 16°C 78% 30.06 in
(1018 mb)
Calm - 10SM
20:15
Overcast
70°F / 21°C 61°F / 16°C 73% 30.06 in
(1018 mb)
Calm - 10SM
19:55
Overcast
70°F / 21°C 59°F / 15°C 69% 30.06 in
(1018 mb)
Calm - 10SM
19:35
Overcast
70°F / 21°C 61°F / 16°C 73% 30.06 in
(1018 mb)
SSW 3.5 mph
(SSW 6 kph)
- 10SM
19:15
Mostly Cloudy
70°F / 21°C 63°F / 17°C 78% 30.06 in
(1018 mb)
SSW 8.1 mph
(SSW 13 kph)
- 10SM
18:35
Overcast
Light Rain
70°F / 21°C 63°F / 17°C 78% 30.06 in
(1018 mb)
Calm - 10SM
18:15
Overcast
Rain
72°F / 22°C 63°F / 17°C 73% 30.06 in
(1018 mb)
NW 10.4 mph
(NW 17 kph)
- 10SM
17:55
Mostly Cloudy
75°F / 24°C 59°F / 15°C 57% 30.06 in
(1018 mb)
SSW 8.1 mph
(SSW 13 kph)
- 10SM
17:35
Mostly Cloudy
77°F / 25°C 59°F / 15°C 54% 30.06 in
(1018 mb)
SSW 8.1 mph
(SSW 13 kph)
- 10SM
17:15
Mostly Cloudy
77°F / 25°C 59°F / 15°C 54% 30.04 in
(1017 mb)
SSW 8.1 mph
(SSW 13 kph)
- 10SM
16:55
Partly Cloudy
79°F / 26°C 59°F / 15°C 51% 30.04 in
(1017 mb)
SSW 9.2 mph
(SSW 15 kph)
- 10SM
16:35
Clear
81°F / 27°C 59°F / 15°C 48% 30.06 in
(1018 mb)
SSW 8.1 mph
(SSW 13 kph)
- 10SM
16:15
Partly Cloudy
81°F / 27°C 59°F / 15°C 48% 30.04 in
(1017 mb)
SSW 10.4 mph
(SSW 17 kph)
- 10SM
15:55
Partly Cloudy
79°F / 26°C 59°F / 15°C 51% 30.06 in
(1018 mb)
SSW 9.2 mph
(SSW 15 kph)
- 10SM
15:35
Partly Cloudy
81°F / 27°C 59°F / 15°C 48% 30.06 in
(1018 mb)
SSW 8.1 mph
(SSW 13 kph)
- 10SM
15:15
Partly Cloudy
81°F / 27°C 59°F / 15°C 48% 30.06 in
(1018 mb)
SSW 9.2 mph
(SSW 15 kph)
- 10SM
14:55
Partly Cloudy
79°F / 26°C 59°F / 15°C 51% 30.06 in
(1018 mb)
W 8.1 mph
(W 13 kph)
- 10SM
14:35
Partly Cloudy
79°F / 26°C 59°F / 15°C 51% 30.06 in
(1018 mb)
W 11.5 mph
(W 19 kph)
- 10SM
14:15
Partly Cloudy
81°F / 27°C 59°F / 15°C 48% 30.06 in
(1018 mb)
SSW 8.1 mph
(SSW 13 kph)
- 10SM
13:55
Partly Cloudy
79°F / 26°C 59°F / 15°C 51% 30.06 in
(1018 mb)
SSW 9.2 mph
(SSW 15 kph)
- 10SM
13:35
Clear
79°F / 26°C 59°F / 15°C 51% 30.06 in
(1018 mb)
SSW 8.1 mph
(SSW 13 kph)
- 10SM
13:15
Partly Cloudy
79°F / 26°C 59°F / 15°C 51% 30.06 in
(1018 mb)
W 10.4 mph
(W 17 kph)
- 10SM
12:55
Partly Cloudy
79°F / 26°C 59°F / 15°C 51% 30.06 in
(1018 mb)
W 10.4 mph
(W 17 kph)
- 10SM
12:35
Partly Cloudy
77°F / 25°C 59°F / 15°C 54% 30.06 in
(1018 mb)
W 11.5 mph
(W 19 kph)
- 10SM
12:15
Clear
77°F / 25°C 59°F / 15°C 54% 30.06 in
(1018 mb)
W 12.7 mph
(W 20 kph)
- 10SM
11:55
Clear
77°F / 25°C 59°F / 15°C 54% 30.06 in
(1018 mb)
SSW 4.6 mph
(SSW 7 kph)
- 10SM
11:35
Clear
77°F / 25°C 59°F / 15°C 54% 30.06 in
(1018 mb)
SW 5.8 mph
(SW 9 kph)
- 10SM
11:15
Clear
75°F / 24°C 59°F / 15°C 57% 30.06 in
(1018 mb)
SSW 8.1 mph
(SSW 13 kph)
- 10SM
10:55
Clear
75°F / 24°C 59°F / 15°C 57% 30.06 in
(1018 mb)
W 8.1 mph
(W 13 kph)
- 10SM
10:35
Clear
73°F / 23°C 59°F / 15°C 61% 30.06 in
(1018 mb)
W 4.6 mph
(W 7 kph)
- 10SM
10:15
Clear
73°F / 23°C 59°F / 15°C 61% 30.06 in
(1018 mb)
SW 3.5 mph
(SW 6 kph)
- 10SM
09:55
Clear
72°F / 22°C 59°F / 15°C 65% 30.06 in
(1018 mb)
SW 4.6 mph
(SW 7 kph)
- 10SM
09:35
Clear
72°F / 22°C 57°F / 14°C 61% 30.06 in
(1018 mb)
SW 4.6 mph
(SW 7 kph)
- 10SM
09:15
Clear
70°F / 21°C 55°F / 13°C 60% 30.06 in
(1018 mb)
SSE 4.6 mph
(SSE 7 kph)
- 10SM
08:55
Clear
68°F / 20°C 57°F / 14°C 69% 30.06 in
(1018 mb)
SW 4.6 mph
(SW 7 kph)
- 10SM
08:35
Clear
66°F / 19°C 59°F / 15°C 78% 30.06 in
(1018 mb)
SW 3.5 mph
(SW 6 kph)
- 10SM
08:15
Clear
64°F / 18°C 59°F / 15°C 83% 30.06 in
(1018 mb)
Calm - 10SM
07:55
Clear
63°F / 17°C 59°F / 15°C 88% 30.06 in
(1018 mb)
Calm - 7SM
07:35
Clear
61°F / 16°C 59°F / 15°C 94% 30.06 in
(1018 mb)
Calm - 7SM
07:15
Clear
Fog And Mist
59°F / 15°C 59°F / 15°C 100% 30.06 in
(1018 mb)
Calm - 5SM
06:55
Clear
Fog And Mist
54°F / 12°C 54°F / 12°C 100% 30.06 in
(1018 mb)
Calm - 4SM
06:35
Clear
Fog And Mist
54°F / 12°C 54°F / 12°C 100% 30.06 in
(1018 mb)
Calm - 2SM
06:15
Clear
Fog And Mist
54°F / 12°C 52°F / 11°C 94% 30.06 in
(1018 mb)
Calm - 2 1/2SM
05:55
Clear
Fog And Mist
52°F / 11°C 52°F / 11°C 100% 30.06 in
(1018 mb)
Calm - 3SM
05:35
Clear
Fog And Mist
52°F / 11°C 52°F / 11°C 100% 30.06 in
(1018 mb)
Calm - 5SM
05:15
Clear
Fog And Mist
52°F / 11°C 52°F / 11°C 100% 30.06 in
(1018 mb)
Calm - 3SM
04:55
Clear
Fog And Mist
54°F / 12°C 52°F / 11°C 94% 30.04 in
(1017 mb)
Calm - 4SM
04:35
Obscured
Fog And Mist
54°F / 12°C 54°F / 12°C 100% 30.04 in
(1017 mb)
Calm - 1 1/4SM
04:15
Mostly Cloudy
Fog And Mist
54°F / 12°C 54°F / 12°C 100% 30.04 in
(1017 mb)
Calm - 1 1/2SM
03:55
Partly Cloudy
Fog And Mist
54°F / 12°C 54°F / 12°C 100% 30.04 in
(1017 mb)
Calm - 3SM
03:35
Clear
54°F / 12°C 54°F / 12°C 100% 30.04 in
(1017 mb)
Calm - 7SM
03:15
Clear
Fog And Mist
55°F / 13°C 54°F / 12°C 94% 30.04 in
(1017 mb)
Calm - 3SM
02:55
Clear
Fog And Mist
55°F / 13°C 55°F / 13°C 100% 30.04 in
(1017 mb)
Calm - 2 1/2SM
02:35
Clear
Fog And Mist
55°F / 13°C 55°F / 13°C 100% 30.04 in
(1017 mb)
Calm - 5SM
02:15
Partly Cloudy
55°F / 13°C 55°F / 13°C 100% 30.04 in
(1017 mb)
Calm - 7SM
01:55
Mostly Cloudy
57°F / 14°C 55°F / 13°C 94% 30.06 in
(1018 mb)
Calm - 7SM
01:35
Partly Cloudy
59°F / 15°C 55°F / 13°C 88% 30.06 in
(1018 mb)
Calm - 10SM
01:15
Partly Cloudy
59°F / 15°C 55°F / 13°C 88% 30.06 in
(1018 mb)
Calm - 10SM
00:55
Partly Cloudy
59°F / 15°C 55°F / 13°C 88% 30.06 in
(1018 mb)
Calm - 10SM
00:35
Mostly Cloudy
59°F / 15°C 57°F / 14°C 94% 30.06 in
(1018 mb)
Calm - 10SM
00:15
Clear
61°F / 16°C 55°F / 13°C 83% 30.06 in
(1018 mb)
Calm - 10SM
Time Weather Temperature Dewpoint Humidity Pressure Winds Precip Visibility


Weather for websites

WeatherForYou.com, LLC is not responsible for any damages or problems caused by this service. Current weather conditions are obtained from the closest station including government and personal stations which may have varying degrees of accuracy. Weather forecasts are derived from the NOAA NDFD. Like all things, this site belongs to Jesus Christ... He just trusts me to maintain it. If you have any questions or comments email webmaster@weatherforyou.com

Copyright © 2014, WeatherForYou.com LLC. All rights reserved.